Regional Weather Roundup
Issued by NWS Glasgow, MT

Home | Current Version | Previous Version | Text Only | Print | Product List | Glossary On
Versions: 1 2 3 4 5 6 7 8 9 10 11 12 13 14 15 16 17 18 19 20 21 22 23 24 25 26 27 28 29 30 31 32 33 34 35 36 37 38 39 40 41 42 43 44 45 46 47 48 49 50
000
ASUS45 KGGW 282215
RWRGGW
HOURLY REGIONAL WEATHER ROUNDUP FOR NORTHEAST MONTANA
NATIONAL WEATHER SERVICE GLASGOW MONTANA
400 PM MDT FRI AUG 28 2015

NOTE: "FAIR" INDICATES FEW OR NO CLOUDS BELOW 12,000 FEET WITH NO
SIGNIFICANT WEATHER AND/OR OBSTRUCTIONS TO VISISBILITY.

NORTHEAST MONTANA


CITY           SKY/WX    TMP DP  RH WIND       PRES   REMARKS
GLASGOW        PTSUNNY   87  40  19 W10       29.91S HAZE
PLENTYWOOD       N/A     86  36  16 W12G22      N/A
WOLF POINT     CLOUDY    91  42  18 W14       29.89F HAZE
JORDAN           N/A     92  36  14 W14       29.94F
WINNETT          N/A     92  26   9 W9G20       N/A
SIDNEY         PTSUNNY   88  46  23 W12       29.89S
GLENDIVE       PTSUNNY   86  45  23 W12       29.94S
MALTA            N/A     86  45  23 W6          N/A
SCOBEY           N/A     82  45  27 W13G18    29.91R HAZE
OPHEIM           N/A     79  37  22 W10       29.65F

FORT PECK REPORTS


CITY           SKY/WX    TMP DP  RH WIND       PRES   REMARKS
FORT PECK        N/A     88  42  20 W9G20       N/A
THE PINES        N/A     91  35  13 W8G20       N/A

SOUTHEAST MONTANA


CITY           SKY/WX    TMP DP  RH WIND       PRES   REMARKS
BILLINGS       PTSUNNY   88  41  19 SW7       30.04F HAZE
MILES CITY     CLOUDY    90  43  19 W13       29.96F HAZE
BAKER          MOSUNNY   87  47  24 NW10      29.99S HAZE
LIVINGSTON     MOSUNNY   87  35  15 W13       30.07F

CENTRAL MONTANA


CITY           SKY/WX    TMP DP  RH WIND       PRES   REMARKS
HAVRE          CLOUDY    89  36  15 SW10      29.90F HAZE
LEWISTOWN      CLOUDY    86  35  16 NE6       30.03F
GREAT FALLS    PTSUNNY   92  30  11 SW14      29.95F
CUT BANK       CLOUDY    83  36  18 S13       29.93F HAZE
HELENA         PTSUNNY   88  41  19 E12       29.97F SMOKE
BUTTE          MOSUNNY   80  35  19 S6        30.13F HAZE
BOZEMAN        CLOUDY    85  44  23 E5        30.07F HAZE

WESTERN MONTANA


CITY           SKY/WX    TMP DP  RH WIND       PRES   REMARKS
MISSOULA       CLOUDY    75  47  36 W7        29.98S HAZE
KALISPELL      NOT AVBL

NORTH DAKOTA


CITY           SKY/WX    TMP DP  RH WIND       PRES   REMARKS
WILLISTON      MOSUNNY   89  47  23 W9        29.88S HAZE
DICKINSON      MOSUNNY   89  48  24 NW3       29.91S
MINOT          SUNNY     87  58  37 NW5       29.85S
BISMARCK       SUNNY     89  64  43 SW10      29.87S

SOUTHERN SASKATCHEWAN


CITY           SKY/WX    TMP DP  RH WIND       PRES   REMARKS
REGINA         CLOUDY    81  61  50 E5        29.84F
MOOSE JAW      PTSUNNY   77  57  50 W6        29.86S SMOKE
ESTEVAN        CLOUDY    86  57  37 W5        29.86S SMOKE
SWIFT CURRENT  SUNNY     82  48  30 W8        29.88S




USA.gov is the U.S. government's official web portal to all federal, state and local government web resources and services.